GFSMA_500_spd_057.txt.gz
Wind_Speed
24 25 25 26 28 30 32 34 35 38 39 41 42 41 43 44 44 43 42 41 40 38 38 37 36 36 36 35 34 33 31 30 29 27 26 25 23 21 19 18 17 17 16
29 30 31 32 34 36 37 39 41 42 43 44 46 48 49 49 49 49 47 46 44 43 43 42 41 39 40 40 39 37 36 34 33 32 30 29 27 24 22 21 20 20 19
34 35 36 38 40 42 44 46 47 48 49 50 50 51 52 53 54 54 52 50 48 47 46 46 47 45 43 43 43 41 40 39 37 36 34 32 31 29 27 25 23 22 22
39 41 42 44 46 49 51 53 54 55 56 56 56 56 57 56 57 57 56 56 54 53 51 49 50 49 48 46 45 45 45 44 41 39 39 36 35 33 31 29 27 25 24
44 46 48 50 52 54 57 59 61 62 63 64 64 63 62 61 60 60 60 60 60 59 58 56 54 53 51 49 48 49 48 47 46 44 43 42 39 37 35 33 31 29 27
49 51 52 54 56 59 62 64 65 67 69 69 69 67 67 66 65 64 63 63 64 64 63 61 59 59 57 55 52 52 51 50 50 49 47 45 44 41 38 37 34 34 31
55 57 59 61 64 66 68 70 71 73 73 74 74 72 70 70 70 70 70 67 68 68 68 67 65 63 61 60 58 55 54 54 53 52 52 50 48 46 43 41 38 36 34
59 62 64 67 69 70 72 74 75 75 76 77 78 78 75 73 73 72 73 72 71 70 70 69 68 67 64 64 64 61 58 57 57 55 55 54 52 50 48 45 42 39 37
65 68 70 72 73 75 76 77 78 79 78 76 77 79 78 76 72 70 70 70 70 68 68 68 67 66 65 64 63 63 62 60 59 58 57 56 56 53 51 49 46 44 40
70 72 73 75 75 76 77 77 77 77 78 78 77 78 79 80 77 74 72 72 74 75 73 73 72 72 71 70 69 65 64 63 61 59 59 58 59 58 55 52 50 47 45
71 71 72 74 75 74 74 74 75 75 77 78 79 79 79 80 81 83 77 73 75 77 79 78 78 76 76 74 73 69 66 66 64 62 60 60 58 59 58 56 53 50 49
69 71 73 74 76 77 78 78 79 79 80 81 82 83 83 83 82 84 85 81 79 77 77 81 81 80 78 77 75 73 69 68 67 66 64 63 61 60 60 59 57 53 51
71 73 75 77 79 80 81 83 84 84 84 84 85 85 87 86 87 87 87 85 84 82 78 74 76 78 78 78 76 74 72 70 69 69 67 65 64 61 60 60 58 56 54
77 80 82 83 84 84 83 83 83 83 84 84 83 83 83 82 80 80 81 82 82 81 81 76 70 72 75 76 76 73 72 69 70 70 70 67 65 65 63 61 59 59 55
84 86 86 85 85 85 85 84 82 79 78 78 77 75 74 73 74 74 75 77 78 77 76 76 74 73 75 76 76 74 70 67 66 68 67 70 68 67 63 63 60 58 57
88 88 88 89 89 87 81 77 75 71 68 65 67 68 70 72 72 70 70 71 72 73 75 74 76 75 79 78 78 77 73 69 68 66 64 69 72 68 65 66 65 63 59
88 89 91 88 82 77 73 69 64 64 65 66 67 64 60 59 59 60 62 60 60 63 70 64 73 78 82 80 78 78 76 74 72 70 65 67 72 75 57 67 69 64 61
90 89 81 75 69 63 61 62 64 65 61 55 53 53 52 54 58 61 63 66 70 72 74 70 75 75 78 79 76 76 74 73 70 70 71 67 69 74 76 66 61 65 61
81 74 67 60 58 60 62 62 56 50 47 48 51 54 57 58 58 58 59 60 63 65 65 64 66 71 72 73 69 70 70 70 68 66 67 71 70 75 78 75 67 63 65
65 59 58 59 61 61 54 50 46 47 52 53 53 52 55 57 56 55 55 57 58 55 49 49 51 61 66 61 59 62 65 66 64 62 66 67 69 69 74 68 64 71 62
57 58 60 61 56 49 46 45 50 51 53 51 51 55 56 57 53 50 53 52 50 45 42 41 43 52 56 49 49 53 56 57 59 63 68 71 71 68 59 70 60 68 53
59 61 60 51 46 43 46 49 49 50 49 51 52 53 51 50 48 50 49 43 39 34 34 36 37 44 46 42 45 50 54 51 52 60 69 68 73 73 76 53 66 63 61
61 56 48 45 41 43 46 47 47 49 53 46 46 47 46 45 45 47 40 37 33 29 27 30 33 37 40 38 41 43 50 50 47 52 68 72 72 68 74 67 54 65 61
52 45 43 39 39 44 44 44 48 53 47 45 43 41 42 42 43 40 34 32 29 26 33 25 23 33 37 39 40 44 41 49 49 46 56 68 74 72 70 65 54 55 58
43 40 37 39 43 43 44 48 52 50 48 43 42 38 38 38 39 34 29 27 25 29 38 25 21 29 38 47 47 47 45 45 47 49 49 58 72 73 69 68 56 53 59
38 34 35 38 41 42 47 48 47 51 48 41 38 35 34 33 30 27 24 24 23 36 36 29 26 27 30 51 54 52 49 46 46 49 51 48 56 69 68 66 62 47 64

GFSMA_500_spd_060.txt.gz
Wind_Speed
28 27 27 27 27 28 29 30 32 33 34 36 38 39 40 40 41 41 41 42 41 40 39 38 38 37 36 35 34 34 32 30 29 28 28 27 25 24 23 21 18 17 18
32 32 32 32 33 33 34 36 37 39 39 40 41 43 44 46 47 46 46 46 45 45 45 43 42 41 41 40 38 36 36 35 34 32 31 30 30 28 26 24 23 20 20
37 37 37 38 39 40 40 42 43 43 45 46 47 49 49 49 50 51 52 51 50 49 49 49 48 47 45 43 43 41 39 39 38 38 36 33 33 31 29 28 26 24 22
39 40 41 42 44 46 47 49 50 50 51 52 52 54 55 56 56 56 55 55 55 54 53 53 53 51 50 48 47 45 43 42 41 42 41 39 37 35 32 31 30 28 26
43 44 45 47 48 50 52 53 55 56 57 59 60 61 62 62 61 61 60 59 58 58 57 57 57 56 55 53 51 50 47 45 45 44 44 43 42 39 36 34 31 31 29
48 49 51 53 54 56 57 58 60 61 63 65 66 67 68 69 69 68 67 65 62 61 61 60 61 60 59 58 56 54 52 49 47 47 46 46 46 44 41 39 35 33 32
52 54 56 58 59 61 63 65 66 68 69 72 72 73 72 73 72 72 73 72 68 66 64 64 64 64 63 62 61 60 57 53 51 50 49 49 49 48 45 43 40 37 34
56 58 60 61 63 65 68 70 72 74 75 77 79 80 78 75 76 75 72 73 72 70 68 66 66 65 65 65 64 64 63 60 56 54 53 52 52 51 49 48 45 42 39
60 62 64 66 67 70 71 73 75 77 78 77 80 83 83 81 77 73 73 73 72 72 71 69 67 65 65 65 66 65 64 64 62 58 56 56 54 54 53 52 49 47 44
63 65 67 67 68 69 70 72 73 75 77 79 79 80 83 84 84 81 74 72 72 73 73 72 71 69 68 66 66 65 64 64 64 62 61 58 57 56 56 54 54 51 48
64 63 63 64 65 67 69 71 74 76 79 80 82 83 83 84 86 88 84 77 75 75 75 76 75 73 72 71 70 70 68 66 64 65 64 62 60 59 58 56 56 55 51
60 60 62 65 69 72 75 78 80 83 86 87 89 90 90 90 89 91 91 88 83 77 77 78 79 79 76 75 75 74 73 71 69 68 68 66 64 61 60 59 57 58 56
61 65 69 73 76 79 81 85 88 90 91 91 91 92 92 91 90 89 90 89 89 83 80 79 78 79 80 79 78 77 76 76 73 70 69 68 66 64 61 60 59 58 58
70 74 77 81 83 86 89 92 94 94 92 91 89 88 87 85 83 83 83 84 84 83 80 74 75 75 76 79 79 79 79 78 76 73 72 70 68 65 62 62 61 59 57
78 82 85 87 89 93 96 97 95 93 89 84 80 77 75 73 73 73 73 72 73 74 73 71 67 66 70 73 75 76 77 76 75 73 73 72 70 67 65 65 63 61 58
85 87 89 92 94 96 95 93 88 80 75 68 64 60 59 60 61 63 65 67 68 68 67 63 66 67 67 71 74 75 75 74 72 70 70 72 71 68 69 66 67 63 60
87 89 92 94 94 91 85 75 66 60 57 58 59 60 61 61 60 58 57 56 56 58 57 51 56 58 63 64 70 76 76 76 73 69 67 67 68 68 70 69 68 65 62
88 90 90 88 79 70 61 57 57 58 59 58 53 50 48 47 46 48 49 51 52 56 56 49 55 55 55 55 56 61 66 76 75 73 69 65 66 66 67 70 68 64 64
85 84 77 67 59 58 58 61 60 55 48 44 42 42 47 48 50 52 52 52 54 56 58 54 55 56 59 63 69 72 70 69 74 74 71 67 66 64 66 69 66 69 51
77 67 59 59 60 60 61 55 48 43 40 44 47 49 50 50 49 49 52 55 58 58 57 53 53 54 57 62 68 69 72 70 69 73 71 68 68 66 66 69 71 72 75
59 58 58 61 62 57 50 47 42 42 44 48 50 49 48 50 54 51 50 53 54 52 49 47 47 51 55 59 62 60 60 61 67 68 70 69 68 68 68 68 70 72 72
57 59 62 60 52 47 47 42 43 45 49 50 48 48 47 45 46 46 48 50 46 44 43 43 44 46 43 41 39 33 36 46 58 61 65 64 63 62 64 66 69 72 69
58 62 56 49 48 45 42 42 46 49 49 48 47 41 42 45 46 44 46 41 39 41 41 37 35 27 29 26 28 27 31 38 47 54 56 56 55 53 59 63 71 71 73
60 53 47 47 44 42 41 45 46 47 50 50 42 44 45 45 41 43 40 36 38 39 34 33 30 26 23 27 28 33 37 39 44 48 45 53 54 56 58 60 66 69 63
51 45 45 42 39 39 42 44 45 47 52 46 43 48 45 39 37 36 31 33 36 31 30 27 26 25 22 29 30 32 37 36 39 39 41 48 59 61 49 67 68 60 58
42 43 39 37 38 40 41 41 44 47 45 45 46 48 37 33 32 28 30 30 26 24 21 23 27 25 22 33 35 34 36 36 34 38 39 41 55 71 71 59 71 63 59

GFSMA_500_spd_063.txt.gz
Wind_Speed
29 29 29 29 29 30 31 31 31 32 33 33 34 35 36 36 35 35 34 35 35 35 36 37 36 37 36 34 33 32 32 32 31 31 29 27 26 25 24 24 22 20 19
32 32 33 34 34 35 36 36 36 37 38 38 38 39 41 42 42 42 42 41 40 41 41 41 41 41 40 40 38 36 35 35 35 35 34 32 30 29 27 26 25 24 22
34 35 37 38 39 40 40 41 41 42 43 44 45 45 45 46 46 47 48 48 48 47 46 45 45 45 45 44 43 41 39 38 38 38 38 38 35 34 30 29 28 26 25
37 37 38 40 41 42 44 45 46 48 49 50 51 51 51 51 52 53 53 54 53 53 53 52 50 49 48 48 47 46 44 43 42 41 41 42 40 38 36 33 31 29 27
41 42 43 44 45 46 47 49 51 52 54 55 56 57 58 58 59 59 59 59 59 58 57 57 56 55 53 52 52 51 50 48 46 45 44 44 44 43 41 38 35 32 30
45 46 47 49 50 52 53 55 56 58 59 60 61 62 63 64 65 66 66 67 66 65 63 61 60 59 58 56 55 56 55 54 51 48 47 46 47 46 45 42 40 36 33
49 50 52 54 55 57 58 60 61 63 65 66 67 68 69 70 71 71 71 73 73 72 69 67 64 62 61 60 60 60 60 59 57 53 50 49 49 48 48 47 45 41 38
53 54 56 58 60 61 63 64 66 67 69 71 73 74 74 72 73 73 75 74 74 74 73 71 67 65 63 62 62 62 63 62 61 59 56 53 52 52 51 50 49 46 43
57 58 61 62 63 64 65 67 68 70 71 69 70 74 75 75 73 70 71 73 74 75 75 74 72 70 66 64 62 62 63 65 64 63 61 58 54 54 54 54 53 51 47
61 63 64 66 67 67 67 66 66 67 68 69 68 71 74 76 78 76 74 76 78 79 79 79 78 76 72 68 65 64 64 63 65 65 64 63 60 57 56 58 56 55 52
64 65 66 66 67 68 67 67 67 68 71 73 76 77 78 80 83 86 84 82 83 84 83 83 83 82 79 74 70 68 66 66 66 66 66 65 64 62 60 60 60 58 56
65 65 67 68 68 68 69 70 73 76 80 82 84 85 87 89 91 94 95 94 92 88 88 86 84 83 83 81 77 73 70 69 69 69 67 67 66 64 63 61 61 61 57
66 67 68 69 71 73 75 78 82 84 86 87 89 92 95 97 98 100 100 96 97 89 85 84 82 81 81 82 81 79 75 73 72 72 71 70 68 67 63 63 62 63 61
68 69 70 72 75 78 80 83 85 87 89 92 94 97 98 97 94 90 89 89 88 86 80 74 74 76 78 78 79 80 79 77 75 74 74 73 72 71 68 67 65 63 64
73 75 77 78 80 81 83 86 89 91 93 93 92 88 82 76 72 70 68 68 70 71 70 59 62 64 69 72 74 76 77 77 77 77 76 76 75 73 72 70 68 66 64
76 76 77 79 82 85 87 88 89 88 86 80 72 65 60 59 58 59 59 59 59 57 52 54 53 55 59 64 66 69 71 72 74 76 77 78 77 76 74 72 71 70 66
74 77 80 83 84 85 85 83 78 72 66 61 59 59 61 61 58 53 51 50 48 47 44 47 51 53 55 61 64 65 67 69 69 71 73 76 77 77 76 74 71 70 69
77 79 81 83 82 81 76 68 62 60 60 61 62 56 48 47 45 42 41 43 43 42 39 37 41 43 45 49 53 59 65 67 68 67 68 70 74 76 76 75 73 71 68
78 80 80 79 76 69 63 61 61 62 60 54 49 47 44 43 45 48 50 50 49 48 47 46 45 46 47 50 50 51 54 58 61 63 67 68 69 71 73 72 72 71 71
79 79 76 70 65 61 61 63 61 53 50 47 42 41 44 46 50 51 51 50 49 47 47 48 48 49 51 53 54 53 55 58 56 55 61 65 69 71 70 70 70 71 73
74 69 64 63 62 60 61 55 49 49 45 41 41 44 47 49 48 49 52 53 50 48 47 47 45 46 49 53 55 58 59 59 60 61 55 55 62 70 71 70 72 73 72
64 59 59 59 56 59 50 48 46 43 40 41 45 45 45 45 46 45 42 43 44 44 45 45 44 46 47 49 53 56 58 60 58 60 62 65 60 63 72 71 70 70 72
56 55 56 55 54 47 47 44 42 41 42 43 43 43 43 43 43 43 43 44 44 46 46 44 43 41 41 44 47 48 49 53 54 57 62 62 65 64 68 72 70 69 68
53 52 53 50 44 43 42 41 40 40 39 38 41 41 41 43 45 47 46 40 39 38 37 37 36 34 34 37 36 36 36 39 45 55 64 67 66 66 68 73 70 69 71
48 50 47 41 40 37 39 37 35 36 39 41 38 36 37 44 46 38 34 32 30 30 31 31 31 30 32 29 27 28 28 30 31 36 49 57 63 65 67 69 70 67 65
46 43 36 35 35 35 32 31 34 38 37 35 32 33 39 49 31 27 27 24 23 27 29 28 27 27 28 27 27 32 36 29 32 33 39 50 57 62 64 64 65 62 64

GFSMA_500_spd_069.txt.gz
Wind_Speed
34 33 32 32 32 32 31 31 32 33 33 34 35 35 36 36 37 36 35 34 35 34 34 33 32 30 29 29 28 28 26 25 25 25 25 25 25 25 25 23 22 21 20
35 35 35 35 35 35 35 35 36 36 37 38 39 40 40 41 42 42 42 41 40 40 39 39 39 38 36 35 33 33 32 31 30 29 29 28 28 28 27 26 25 24 23
35 35 35 36 37 37 38 39 39 39 40 41 42 43 43 44 45 46 47 46 46 46 46 45 44 44 43 42 41 38 38 37 35 34 33 33 32 32 30 29 28 27 26
35 36 37 38 39 40 41 42 42 43 44 45 45 45 46 47 48 49 49 50 50 50 50 51 50 50 49 48 46 45 43 42 41 39 38 37 36 36 36 32 31 31 30
37 38 39 40 41 43 44 45 46 47 47 48 49 49 50 51 52 53 53 53 54 54 54 54 53 54 54 53 52 51 50 48 47 45 43 41 40 40 40 38 35 34 34
39 41 42 43 45 47 48 49 50 50 51 52 52 53 54 55 56 57 58 58 59 58 58 58 58 57 58 57 56 55 55 54 53 51 49 47 45 44 43 42 41 38 37
43 45 47 48 49 50 52 53 54 55 55 57 57 57 57 59 59 61 61 61 63 63 63 63 63 62 62 60 60 60 58 57 56 55 55 53 51 48 47 46 45 43 41
47 50 51 53 54 55 56 57 58 59 60 60 62 63 62 61 64 65 65 65 67 68 68 68 67 66 65 63 60 60 59 59 59 58 56 57 56 54 51 50 49 48 46
52 54 56 57 58 58 59 61 62 63 64 63 65 68 69 69 68 66 69 69 68 68 70 71 70 70 69 67 63 61 58 58 57 56 56 57 58 58 57 54 53 52 51
57 58 59 60 61 62 63 64 64 64 66 66 66 67 71 74 75 74 70 71 71 72 72 73 73 74 72 71 68 65 63 60 58 57 57 56 57 59 60 60 58 56 54
61 62 63 64 65 65 65 65 65 66 67 69 70 71 71 73 75 78 80 76 75 74 73 74 76 78 77 77 75 74 72 70 66 64 61 58 56 58 60 61 62 60 59
64 64 64 64 65 65 66 66 67 67 68 69 70 72 73 74 75 77 79 79 81 80 80 79 79 81 81 82 82 82 80 78 75 73 71 67 63 60 61 63 63 63 61
62 62 62 63 64 65 66 67 68 68 69 70 72 74 76 78 80 82 83 83 85 83 85 86 85 85 86 87 86 86 85 84 82 79 78 76 72 68 65 65 65 65 64
61 62 63 65 66 66 66 67 68 70 73 75 76 77 78 80 81 83 85 86 87 86 85 85 87 88 86 87 89 90 90 89 88 86 82 81 78 75 72 69 68 68 65
65 64 64 63 64 66 69 71 73 74 75 77 79 81 83 83 85 85 85 85 86 85 81 75 80 78 77 75 76 80 84 87 88 89 87 85 84 80 77 75 72 71 71
62 63 66 68 70 71 74 76 77 78 81 82 83 84 85 84 81 78 75 70 66 64 62 58 59 60 59 59 59 59 60 65 71 76 79 82 82 81 80 79 78 76 74
67 69 70 72 74 76 78 81 83 85 87 87 86 84 81 73 65 59 57 57 59 58 51 47 50 50 49 48 48 49 53 55 56 55 59 68 75 79 81 81 82 82 79
72 73 75 77 79 81 83 86 88 90 86 83 82 74 64 58 56 57 56 51 48 48 45 40 40 39 38 40 39 37 35 41 49 50 50 53 66 75 80 83 84 85 83
75 77 79 81 83 86 89 90 88 85 80 72 63 57 53 56 54 50 48 46 43 38 34 32 35 39 42 43 43 42 41 40 37 41 49 49 50 62 74 82 85 85 85
78 80 82 85 87 87 86 80 73 65 60 55 51 52 53 50 47 42 39 38 37 36 37 39 41 43 45 48 48 47 46 45 44 43 40 46 51 54 65 76 82 83 84
80 83 84 84 78 70 65 59 54 51 49 48 49 49 44 43 42 40 37 36 38 40 41 41 42 44 45 47 48 48 47 46 47 48 47 42 46 52 54 65 76 81 83
83 81 71 64 61 54 48 47 49 48 48 49 45 41 40 40 39 38 39 40 40 41 43 45 46 46 47 47 49 51 52 52 49 49 49 46 42 47 53 56 66 74 78
65 60 57 50 44 45 47 48 49 50 46 42 41 40 40 38 38 39 40 42 43 43 42 43 43 44 48 50 51 52 52 51 51 52 49 46 45 42 47 55 58 67 72
52 47 42 44 46 48 48 46 41 40 41 40 41 42 41 40 42 43 43 42 39 38 36 45 50 51 53 50 51 52 46 47 45 46 52 51 47 43 45 48 58 61 67
41 41 44 48 49 44 40 37 38 39 41 42 42 42 42 43 48 45 45 42 37 36 43 43 42 41 40 43 45 47 43 42 43 41 42 46 48 51 47 46 51 61 63
40 44 47 44 40 36 35 35 37 41 43 44 42 46 47 50 52 46 38 37 33 37 39 38 37 37 35 33 37 42 40 37 37 40 41 43 44 47 50 48 49 56 64

GFSMA_500_spd_072.txt.gz
Wind_Speed
32 32 32 32 32 32 33 32 32 32 32 32 33 33 33 33 34 34 34 34 36 35 34 33 32 31 30 29 28 26 25 24 23 21 21 20 19 18 18 18 18 18 17
34 34 35 35 35 34 35 35 35 35 35 35 35 36 37 37 38 38 38 38 38 39 39 38 38 37 36 35 34 33 32 31 29 27 26 25 24 23 21 21 20 20 20
35 35 35 36 37 37 37 37 37 37 37 37 38 39 40 40 40 41 41 41 41 41 42 43 42 42 41 40 40 39 38 37 36 34 32 30 29 28 26 24 24 24 23
35 35 36 37 38 38 38 39 39 40 40 41 41 42 42 43 43 44 44 45 44 44 45 45 47 47 46 45 45 44 43 43 41 39 37 36 34 32 31 29 27 27 27
36 37 38 39 39 40 41 42 42 43 44 45 45 46 47 47 48 48 48 48 48 48 48 49 49 50 51 51 50 49 48 47 46 44 43 41 39 38 36 35 32 30 30
38 39 40 41 42 44 45 46 47 48 49 49 49 50 50 51 52 53 53 54 54 55 55 53 53 53 53 54 54 53 52 51 51 50 48 46 44 43 41 39 37 35 34
40 42 43 45 47 48 49 50 51 52 53 54 54 53 53 54 56 56 56 57 57 58 59 59 59 57 57 57 56 56 56 56 55 54 53 52 50 48 46 44 42 40 38
45 47 48 50 52 53 54 55 56 56 56 58 59 59 58 57 59 60 61 61 61 62 62 63 63 62 62 61 61 59 59 59 59 58 57 56 56 54 52 49 47 45 43
50 52 54 56 57 58 58 59 60 61 61 61 63 65 65 64 63 60 62 65 65 65 65 64 66 67 67 66 65 63 62 62 62 61 60 58 58 59 57 55 52 50 49
56 58 59 60 60 62 63 63 64 64 65 64 63 63 66 68 69 67 61 62 64 66 67 68 69 69 69 70 70 69 68 66 64 63 62 61 59 59 60 59 57 55 53
61 62 63 64 65 65 64 64 63 63 63 64 64 63 63 64 66 71 73 64 64 65 66 68 69 70 71 72 73 72 72 71 69 67 65 63 61 60 59 59 60 59 57
65 66 66 65 64 64 63 63 63 63 63 63 63 64 65 65 65 69 72 73 74 70 70 71 73 73 74 76 76 76 75 74 73 72 70 68 65 63 61 59 59 59 58
64 64 64 64 64 65 66 66 65 63 62 62 63 64 67 69 71 72 74 74 76 76 77 76 76 78 79 79 79 80 79 79 78 77 74 72 72 69 66 63 59 57 52
65 67 68 69 70 69 66 63 63 64 66 67 67 69 71 72 73 75 77 80 80 79 79 80 83 83 84 84 84 83 83 81 81 80 80 77 75 75 73 70 67 62 57
72 73 72 70 67 65 66 68 69 70 71 73 74 75 76 77 79 81 82 85 87 86 84 85 88 87 86 85 83 81 82 82 82 81 82 82 79 79 78 75 73 71 67
71 68 67 68 69 70 73 74 75 76 77 78 80 81 82 83 84 86 88 90 90 89 86 78 76 73 70 69 68 67 66 68 68 72 77 80 81 79 80 79 77 76 74
69 70 72 73 74 75 77 77 77 79 81 83 84 85 85 87 89 88 85 79 73 67 63 54 57 57 57 56 55 55 56 54 53 55 59 63 69 74 79 82 82 80 78
72 72 73 73 74 75 76 79 80 82 84 86 88 90 88 81 75 67 61 56 55 54 54 46 48 48 46 46 43 41 43 42 39 41 45 51 53 58 68 75 81 83 82
72 71 72 74 75 76 77 80 84 86 86 81 74 69 64 57 52 50 49 48 49 48 46 43 42 43 41 39 39 35 33 32 33 33 33 32 41 48 49 62 76 82 84
71 73 74 76 79 80 83 83 79 71 64 62 56 51 48 46 44 45 47 46 43 43 41 39 37 36 35 35 33 35 36 37 38 38 37 35 33 35 46 50 63 79 86
77 79 80 81 79 74 66 61 59 53 48 47 47 47 46 45 45 41 41 41 40 41 40 39 37 37 37 38 39 43 43 44 44 44 43 41 40 37 35 47 51 64 81
76 72 65 59 55 54 50 48 47 48 49 50 48 45 40 37 36 36 37 38 37 38 37 37 36 38 38 41 42 44 44 45 45 47 46 44 43 43 40 37 47 52 66
59 57 53 48 45 44 43 46 49 51 48 44 40 37 36 35 35 36 36 36 36 36 38 41 41 41 43 43 44 45 46 48 49 48 52 50 48 46 45 43 42 50 54
47 42 40 41 41 43 47 47 43 41 39 39 39 37 38 39 38 38 38 39 38 40 41 42 44 45 43 40 41 42 45 47 48 49 50 49 49 49 50 47 44 49 52
38 39 40 42 45 43 39 38 36 38 39 40 40 41 43 44 41 44 46 45 45 44 42 38 39 41 40 41 43 44 47 49 52 50 46 49 47 50 52 51 48 47 54
38 41 42 41 38 35 33 35 36 37 40 42 42 41 41 41 38 38 39 38 36 32 29 23 34 36 38 40 42 42 40 39 38 40 39 40 46 47 52 50 50 46 52

GFSMA_500_spd_075.txt.gz
Wind_Speed
32 32 32 33 33 34 34 33 34 33 32 32 33 33 33 33 32 32 32 32 34 35 35 33 33 32 30 29 28 27 25 25 24 22 20 19 17 15 15 14 14 14 12
33 34 34 35 35 35 35 35 35 35 34 34 35 35 36 36 36 36 36 36 36 38 38 38 37 38 37 36 34 34 32 31 29 28 26 25 23 21 19 18 17 17 17
36 36 37 37 38 38 37 37 36 36 36 36 37 38 38 38 39 39 40 40 39 38 40 41 41 40 40 40 40 39 37 36 35 33 32 31 29 27 25 24 22 20 20
38 39 39 39 39 39 39 39 39 39 39 39 38 40 40 41 42 43 43 43 42 42 42 42 44 45 43 43 43 43 42 41 40 39 38 37 35 33 31 29 27 25 23
38 39 39 40 41 41 42 43 44 43 43 43 43 43 44 46 46 46 46 46 47 47 47 47 46 47 48 48 47 46 46 46 45 44 43 42 41 39 37 34 32 30 28
40 41 41 42 43 44 46 47 47 48 49 49 49 48 49 50 51 51 52 52 52 52 53 52 51 51 52 52 52 51 50 50 49 48 47 46 46 44 42 41 38 36 34
42 43 43 45 47 48 50 51 52 52 53 54 54 53 53 54 54 54 54 55 56 56 56 56 56 56 55 55 56 56 56 55 54 53 52 51 50 49 48 46 44 41 39
44 45 47 49 51 53 54 56 57 57 58 59 59 59 57 55 58 57 58 58 59 59 60 60 60 60 60 59 59 59 59 59 58 57 57 55 54 53 52 51 48 46 44
49 50 52 55 57 58 59 61 62 62 62 63 64 65 64 63 61 59 60 62 63 62 62 62 62 63 64 64 63 63 63 62 62 62 60 59 58 57 56 55 54 51 49
52 55 58 60 62 63 65 66 66 67 67 66 65 65 67 68 67 64 58 60 61 62 64 65 65 65 65 66 67 67 66 65 64 65 65 64 62 61 60 60 58 56 54
57 59 61 61 62 62 63 63 64 64 64 65 64 63 63 65 66 69 69 57 60 61 62 63 64 65 66 68 68 68 69 69 68 67 68 68 67 65 63 62 62 61 59
55 57 59 61 63 63 64 65 67 68 67 67 67 67 66 65 64 66 69 70 63 59 63 65 66 67 69 69 70 71 70 70 70 70 70 69 70 69 68 65 64 63 62
60 63 65 66 67 69 70 73 75 75 73 71 67 63 62 62 64 66 67 68 69 67 64 65 68 70 71 72 72 72 72 72 72 72 73 72 72 72 72 70 67 65 63
66 69 71 72 74 75 76 74 72 69 67 66 66 68 68 68 70 71 72 73 73 73 73 71 71 73 75 77 78 79 77 76 76 75 75 75 75 74 74 74 73 69 66
71 72 73 73 74 74 73 72 72 72 73 72 73 74 74 74 75 76 77 80 82 80 77 78 81 80 80 82 82 84 84 84 83 82 79 77 77 76 76 77 75 74 71
74 74 74 75 76 76 76 75 75 74 73 72 72 73 73 75 77 79 81 82 84 85 84 80 83 84 87 87 88 89 88 88 88 87 85 83 80 79 79 79 80 77 76
75 76 77 76 77 75 74 74 71 71 72 74 74 75 76 77 79 81 84 85 86 88 88 81 87 87 86 82 76 75 76 76 76 76 77 76 76 79 80 80 81 81 79
74 74 74 73 72 70 70 71 73 75 76 76 78 80 80 83 82 81 77 71 67 66 65 60 56 53 55 56 56 56 56 56 56 57 58 61 66 70 73 77 83 84 83
72 72 72 71 72 76 77 78 77 77 76 75 73 71 66 62 58 55 52 49 47 47 47 45 42 46 48 48 49 46 46 47 47 45 47 51 55 57 61 68 75 82 86
71 72 75 76 77 75 74 70 66 63 58 56 53 50 44 43 44 45 46 45 45 44 44 43 42 42 42 40 41 41 42 43 41 42 41 43 45 47 52 56 65 77 84
72 71 68 65 62 62 59 56 53 50 46 43 41 43 45 47 47 44 42 40 38 36 37 37 38 37 36 35 34 38 36 34 33 36 37 37 36 36 35 41 54 61 76
62 59 57 55 50 45 41 40 41 40 42 44 45 45 42 38 35 34 33 34 35 36 38 38 36 35 32 31 34 36 37 37 36 38 39 40 39 38 38 36 38 52 60
54 50 44 39 39 40 40 41 43 45 44 40 37 35 33 33 32 33 33 34 36 37 39 38 36 34 31 27 35 37 37 38 39 44 43 44 45 44 44 43 41 39 50
42 36 39 41 41 43 43 41 39 37 35 34 36 34 34 34 34 36 37 37 37 37 36 37 39 37 35 31 34 37 38 39 40 41 44 43 46 46 46 45 47 45 42
35 38 41 44 43 39 36 33 32 33 33 33 34 36 36 35 33 33 35 35 35 33 37 39 42 42 41 40 37 38 36 37 38 39 45 45 47 47 50 50 49 50 48
37 40 43 42 37 30 29 28 30 32 33 31 28 30 32 33 31 29 31 32 32 28 28 28 30 33 36 32 34 34 37 38 40 40 42 46 47 50 50 51 54 54 52